Time,TemperatureF,DewpointF,PressureIn,WindDirection,WindDirectionDegrees,WindSpeedMPH,WindSpeedGustMPH,Humidity,HourlyPrecipIn,Conditions,Clouds,dailyrainin,SoftwareType,DateUTC
2013-03-30 00:00:00,52.0,35.4,30.18,WNW,282,0.0,3.6,53,0.00,,---,0.00,VWS V14.01,2013-03-30 04:00:00,
2013-03-30 00:05:00,51.8,35.2,30.18,WSW,244,0.0,0.0,53,0.00,,---,0.00,VWS V14.01,2013-03-30 04:05:00,
2013-03-30 00:10:00,51.8,35.2,30.18,SSW,204,0.0,0.0,53,0.00,,---,0.00,VWS V14.01,2013-03-30 04:10:00,
2013-03-30 00:15:00,51.8,35.2,30.18,West,260,0.0,0.0,53,0.00,,---,0.00,VWS V14.01,2013-03-30 04:15:00,
2013-03-30 00:20:00,51.6,35.5,30.18,WSW,237,0.0,0.0,54,0.00,,---,0.00,VWS V14.01,2013-03-30 04:20:00,
2013-03-30 00:25:00,51.6,35.5,30.18,SW,217,0.0,0.0,54,0.00,,---,0.00,VWS V14.01,2013-03-30 04:25:00,
2013-03-30 00:30:00,51.6,35.5,30.18,WSW,254,0.0,0.0,54,0.00,,---,0.00,VWS V14.01,2013-03-30 04:30:00,
2013-03-30 00:35:00,51.6,36.0,30.18,SW,234,0.0,0.0,55,0.00,,---,0.00,VWS V14.01,2013-03-30 04:35:00,
2013-03-30 00:40:00,51.6,36.0,30.18,SSW,200,0.0,0.0,55,0.00,,---,0.00,VWS V14.01,2013-03-30 04:40:00,
2013-03-30 00:45:00,51.6,36.5,30.18,SSW,206,0.0,0.0,56,0.00,,---,0.00,VWS V14.01,2013-03-30 04:45:00,
2013-03-30 00:50:00,51.8,36.2,30.18,SW,223,0.0,0.0,55,0.00,,---,0.00,VWS V14.01,2013-03-30 04:50:00,
2013-03-30 00:55:00,51.6,36.5,30.18,West,267,0.0,0.0,56,0.00,,---,0.00,VWS V14.01,2013-03-30 04:55:00,
2013-03-30 01:00:00,51.6,36.5,30.18,South,190,0.0,0.0,56,0.00,,---,0.00,VWS V14.01,2013-03-30 05:00:00,
2013-03-30 01:05:00,51.6,36.9,30.18,SW,234,0.0,0.0,57,0.00,,---,0.00,VWS V14.01,2013-03-30 05:05:00,
2013-03-30 01:10:00,51.6,37.3,30.18,SW,227,0.0,0.0,58,0.00,,---,0.00,VWS V14.01,2013-03-30 05:10:00,
2013-03-30 01:15:00,51.8,37.5,30.18,WSW,238,0.0,0.0,58,0.00,,---,0.00,VWS V14.01,2013-03-30 05:15:00,
2013-03-30 01:20:00,51.8,37.5,30.18,SSW,208,0.0,0.0,58,0.00,,---,0.00,VWS V14.01,2013-03-30 05:20:00,
2013-03-30 01:25:00,51.8,37.9,30.15,SSW,208,0.0,0.0,59,0.00,,---,0.00,VWS V14.01,2013-03-30 05:25:00,
2013-03-30 01:30:00,51.6,38.2,30.15,SSW,197,0.0,0.0,60,0.00,,---,0.00,VWS V14.01,2013-03-30 05:30:00,
2013-03-30 01:35:00,51.8,38.4,30.15,SSW,197,0.0,0.0,60,0.00,,---,0.00,VWS V14.01,2013-03-30 05:35:00,
2013-03-30 01:40:00,51.8,38.4,30.15,SSW,197,0.0,0.0,60,0.00,,---,0.00,VWS V14.01,2013-03-30 05:40:00,
2013-03-30 01:45:00,51.8,38.4,30.15,SSW,197,0.0,0.0,60,0.00,,---,0.00,VWS V14.01,2013-03-30 05:45:00,
2013-03-30 01:50:00,51.8,38.8,30.15,SSW,198,0.0,0.0,61,0.00,,---,0.00,VWS V14.01,2013-03-30 05:50:00,
2013-03-30 01:55:00,51.8,38.8,30.15,SSW,198,0.0,0.0,61,0.00,,---,0.00,VWS V14.01,2013-03-30 05:55:00,
2013-03-30 02:00:00,51.6,39.0,30.15,SSW,198,0.0,0.0,62,0.00,,---,0.00,VWS V14.01,2013-03-30 06:00:00,
2013-03-30 02:05:00,51.6,39.5,30.15,SSW,198,0.0,0.0,63,0.00,,---,0.00,VWS V14.01,2013-03-30 06:05:00,
2013-03-30 02:10:00,51.6,39.5,30.15,SSW,198,0.0,0.0,63,0.00,,---,0.00,VWS V14.01,2013-03-30 06:10:00,
2013-03-30 02:15:00,51.6,39.8,30.15,SSW,199,0.0,0.0,64,0.00,,---,0.00,VWS V14.01,2013-03-30 06:15:00,
2013-03-30 02:20:00,51.6,39.8,30.15,SSW,199,0.0,0.0,64,0.00,,---,0.00,VWS V14.01,2013-03-30 06:20:00,
2013-03-30 02:25:00,51.6,40.2,30.15,SSW,199,0.0,0.0,65,0.00,,---,0.00,VWS V14.01,2013-03-30 06:25:00,
2013-03-30 02:30:00,51.6,40.2,30.15,SSW,199,0.0,0.0,65,0.00,,---,0.00,VWS V14.01,2013-03-30 06:30:00,
2013-03-30 02:35:00,51.6,40.2,30.15,SSW,200,0.0,0.0,65,0.00,,---,0.00,VWS V14.01,2013-03-30 06:35:00,
2013-03-30 02:40:00,51.6,40.7,30.15,South,173,0.0,0.0,66,0.00,,---,0.00,VWS V14.01,2013-03-30 06:40:00,
2013-03-30 02:45:00,51.6,40.7,30.15,South,177,0.0,0.0,66,0.00,,---,0.00,VWS V14.01,2013-03-30 06:45:00,
2013-03-30 02:50:00,51.6,40.7,30.15,South,177,0.0,0.0,66,0.00,,---,0.00,VWS V14.01,2013-03-30 06:50:00,
2013-03-30 02:55:00,51.8,40.8,30.15,SSW,195,0.0,0.0,66,0.00,,---,0.00,VWS V14.01,2013-03-30 06:55:00,
2013-03-30 03:00:00,51.8,40.8,30.15,SSW,198,0.0,0.0,66,0.00,,---,0.00,VWS V14.01,2013-03-30 07:00:00,
2013-03-30 03:05:00,51.8,41.2,30.15,WSW,240,0.0,0.0,67,0.00,,---,0.00,VWS V14.01,2013-03-30 07:05:00,
2013-03-30 03:10:00,51.8,41.2,30.15,West,268,0.0,0.0,67,0.00,,---,0.00,VWS V14.01,2013-03-30 07:10:00,
2013-03-30 03:15:00,51.8,41.2,30.15,SW,217,0.0,0.0,67,0.00,,---,0.00,VWS V14.01,2013-03-30 07:15:00,
2013-03-30 03:20:00,51.8,41.2,30.15,SW,219,0.0,0.0,67,0.00,,---,0.00,VWS V14.01,2013-03-30 07:20:00,
2013-03-30 03:25:00,51.8,41.2,30.15,WSW,255,0.0,0.0,67,0.00,,---,0.00,VWS V14.01,2013-03-30 07:25:00,
2013-03-30 03:30:00,52.0,41.4,30.15,SW,218,0.0,0.0,67,0.00,,---,0.00,VWS V14.01,2013-03-30 07:30:00,
2013-03-30 03:35:00,52.0,41.4,30.15,SW,221,0.0,0.0,67,0.00,,---,0.00,VWS V14.01,2013-03-30 07:35:00,
2013-03-30 03:40:00,52.0,41.4,30.15,WSW,244,0.0,0.0,67,0.00,,---,0.00,VWS V14.01,2013-03-30 07:40:00,
2013-03-30 03:45:00,52.0,41.0,30.15,WSW,251,0.0,0.0,66,0.00,,---,0.00,VWS V14.01,2013-03-30 07:45:00,
2013-03-30 03:50:00,52.0,41.0,30.15,WSW,251,0.0,0.0,66,0.00,,---,0.00,VWS V14.01,2013-03-30 07:50:00,
2013-03-30 03:55:00,52.0,41.0,30.15,WSW,251,0.0,0.0,66,0.00,,---,0.00,VWS V14.01,2013-03-30 07:55:00,
2013-03-30 04:00:00,52.0,40.6,30.15,WSW,251,0.0,0.0,65,0.00,,---,0.00,VWS V14.01,2013-03-30 08:00:00,
2013-03-30 04:05:00,52.0,40.6,30.15,WSW,251,0.0,0.0,65,0.00,,---,0.00,VWS V14.01,2013-03-30 08:05:00,
2013-03-30 04:10:00,52.0,40.2,30.12,WSW,251,0.0,0.0,64,0.00,,---,0.00,VWS V14.01,2013-03-30 08:10:00,
2013-03-30 04:15:00,51.8,39.6,30.12,WSW,251,0.0,0.0,63,0.00,,---,0.00,VWS V14.01,2013-03-30 08:15:00,
2013-03-30 04:20:00,51.8,39.6,30.12,WSW,251,0.0,0.0,63,0.00,,---,0.00,VWS V14.01,2013-03-30 08:20:00,
2013-03-30 04:25:00,51.6,39.5,30.12,WSW,251,0.0,0.0,63,0.00,,---,0.00,VWS V14.01,2013-03-30 08:25:00,
2013-03-30 04:30:00,51.6,39.5,30.12,WSW,251,0.0,0.0,63,0.00,,---,0.00,VWS V14.01,2013-03-30 08:30:00,
2013-03-30 04:35:00,51.4,39.3,30.12,WSW,251,0.0,0.0,63,0.00,,---,0.00,VWS V14.01,2013-03-30 08:35:00,
2013-03-30 04:40:00,51.4,39.3,30.12,WSW,251,0.0,0.0,63,0.00,,---,0.00,VWS V14.01,2013-03-30 08:40:00,
2013-03-30 04:44:00,51.4,39.3,30.12,WSW,251,0.0,0.0,63,0.00,,---,0.00,VWS V14.01,2013-03-30 08:44:00,
2013-03-30 04:49:00,51.4,39.3,30.12,WSW,251,0.0,0.0,63,0.00,,---,0.00,VWS V14.01,2013-03-30 08:49:00,
2013-03-30 04:54:00,51.3,39.1,30.12,WSW,251,0.0,0.0,63,0.00,,---,0.00,VWS V14.01,2013-03-30 08:54:00,
2013-03-30 04:59:00,51.1,38.5,30.12,WSW,251,0.0,0.0,62,0.00,,---,0.00,VWS V14.01,2013-03-30 08:59:00,
2013-03-30 05:04:00,51.1,38.1,30.12,WSW,251,0.0,0.0,61,0.00,,---,0.00,VWS V14.01,2013-03-30 09:04:00,
2013-03-30 05:09:00,50.7,37.4,30.12,WSW,251,0.0,0.0,60,0.00,,---,0.00,VWS V14.01,2013-03-30 09:09:00,
2013-03-30 05:14:00,50.5,36.8,30.12,WSW,251,0.0,0.0,59,0.00,,---,0.00,VWS V14.01,2013-03-30 09:14:00,
2013-03-30 05:19:00,50.4,36.6,30.12,WSW,251,0.0,0.0,59,0.00,,---,0.00,VWS V14.01,2013-03-30 09:19:00,
2013-03-30 05:24:00,50.2,36.0,30.12,WSW,251,0.0,0.0,58,0.00,,---,0.00,VWS V14.01,2013-03-30 09:24:00,
2013-03-30 05:29:00,50.2,36.0,30.12,WSW,251,0.0,0.0,58,0.00,,---,0.00,VWS V14.01,2013-03-30 09:29:00,
2013-03-30 05:34:00,50.2,36.0,30.12,WSW,252,0.0,0.0,58,0.00,,---,0.00,VWS V14.01,2013-03-30 09:34:00,
2013-03-30 05:39:00,50.0,35.8,30.12,WSW,252,0.0,0.0,58,0.00,,---,0.00,VWS V14.01,2013-03-30 09:39:00,
2013-03-30 05:44:00,49.8,36.1,30.12,WSW,253,0.0,0.0,59,0.00,,---,0.00,VWS V14.01,2013-03-30 09:44:00,
2013-03-30 05:49:00,49.8,35.7,30.12,WSW,253,0.0,0.0,58,0.00,,---,0.00,VWS V14.01,2013-03-30 09:49:00,
2013-03-30 05:54:00,49.8,35.7,30.12,WSW,253,0.0,0.0,58,0.00,,---,0.00,VWS V14.01,2013-03-30 09:54:00,
2013-03-30 05:59:00,49.8,35.7,30.12,WSW,253,0.0,0.0,58,0.00,,---,0.00,VWS V14.01,2013-03-30 09:59:00,
2013-03-30 06:04:00,49.6,35.5,30.12,WSW,253,0.0,0.0,58,0.00,,---,0.00,VWS V14.01,2013-03-30 10:04:00,
2013-03-30 06:09:00,49.6,35.0,30.12,WSW,253,0.0,0.0,57,0.00,,---,0.00,VWS V14.01,2013-03-30 10:09:00,
2013-03-30 06:14:00,49.6,35.0,30.12,WSW,253,0.0,0.0,57,0.00,,---,0.00,VWS V14.01,2013-03-30 10:14:00,
2013-03-30 06:19:00,49.6,35.0,30.12,WSW,253,0.0,0.0,57,0.00,,---,0.00,VWS V14.01,2013-03-30 10:19:00,
2013-03-30 06:24:00,49.6,34.6,30.12,WSW,253,0.0,0.0,56,0.00,,---,0.00,VWS V14.01,2013-03-30 10:24:00,
2013-03-30 06:29:00,49.5,34.4,30.12,WSW,253,0.0,0.0,56,0.00,,---,0.00,VWS V14.01,2013-03-30 10:29:00,
2013-03-30 06:34:00,49.5,34.4,30.12,WSW,252,0.0,0.0,56,0.00,,---,0.00,VWS V14.01,2013-03-30 10:34:00,
2013-03-30 06:39:00,49.5,34.4,30.12,WSW,252,0.0,0.0,56,0.00,,---,0.00,VWS V14.01,2013-03-30 10:39:00,
2013-03-30 06:44:00,49.3,34.3,30.12,WSW,252,0.0,0.0,56,0.00,,---,0.00,VWS V14.01,2013-03-30 10:44:00,
2013-03-30 06:49:00,49.3,34.3,30.12,WSW,252,0.0,0.0,56,0.00,,---,0.00,VWS V14.01,2013-03-30 10:49:00,
2013-03-30 06:54:00,48.9,33.9,30.15,WSW,252,0.0,0.0,56,0.00,,---,0.00,VWS V14.01,2013-03-30 10:54:00,
2013-03-30 06:59:00,48.9,33.9,30.15,WSW,253,0.0,0.0,56,0.00,,---,0.00,VWS V14.01,2013-03-30 10:59:00,
2013-03-30 07:04:00,48.9,33.9,30.15,WSW,253,0.0,0.0,56,0.00,,---,0.00,VWS V14.01,2013-03-30 11:04:00,
2013-03-30 07:09:00,48.7,34.2,30.15,WSW,253,0.0,0.0,57,0.00,,---,0.00,VWS V14.01,2013-03-30 11:09:00,
2013-03-30 07:14:00,48.7,34.2,30.15,WSW,253,0.0,0.0,57,0.00,,---,0.00,VWS V14.01,2013-03-30 11:14:00,
2013-03-30 07:19:00,48.7,34.6,30.15,WSW,253,0.0,0.0,58,0.00,,---,0.00,VWS V14.01,2013-03-30 11:19:00,
2013-03-30 07:24:00,48.9,34.8,30.15,WSW,253,0.0,0.0,58,0.00,,---,0.00,VWS V14.01,2013-03-30 11:24:00,
2013-03-30 07:29:00,48.9,34.8,30.15,WSW,253,0.0,0.0,58,0.00,,---,0.00,VWS V14.01,2013-03-30 11:29:00,
2013-03-30 07:34:00,49.1,35.0,30.15,WSW,253,0.0,0.0,58,0.00,,---,0.00,VWS V14.01,2013-03-30 11:34:00,
2013-03-30 07:39:00,49.1,35.4,30.15,WSW,253,0.0,0.0,59,0.00,,---,0.00,VWS V14.01,2013-03-30 11:39:00,
2013-03-30 07:44:00,49.1,35.4,30.15,WSW,253,0.0,0.0,59,0.00,,---,0.00,VWS V14.01,2013-03-30 11:44:00,
2013-03-30 07:49:00,49.3,36.0,30.15,WSW,253,0.0,0.0,60,0.00,,---,0.00,VWS V14.01,2013-03-30 11:49:00,
2013-03-30 07:54:00,49.6,36.3,30.15,WSW,253,0.0,0.0,60,0.00,,---,0.00,VWS V14.01,2013-03-30 11:54:00,
2013-03-30 07:59:00,49.8,36.1,30.15,WSW,253,0.0,0.0,59,0.00,,---,0.00,VWS V14.01,2013-03-30 11:59:00,
2013-03-30 08:04:00,50.2,36.0,30.15,West,262,0.0,0.0,58,0.00,,---,0.00,VWS V14.01,2013-03-30 12:04:00,
2013-03-30 08:09:00,50.4,35.7,30.15,West,262,0.0,0.0,57,0.00,,---,0.00,VWS V14.01,2013-03-30 12:09:00,
2013-03-30 08:14:00,50.7,36.1,30.15,West,276,0.0,4.0,57,0.00,,---,0.00,VWS V14.01,2013-03-30 12:14:00,
2013-03-30 08:19:00,50.9,36.2,30.15,WSW,258,0.0,0.0,57,0.00,,---,0.00,VWS V14.01,2013-03-30 12:19:00,
2013-03-30 08:24:00,51.1,36.4,30.15,WNW,296,0.0,0.0,57,0.00,,---,0.00,VWS V14.01,2013-03-30 12:24:00,
2013-03-30 08:29:00,51.3,36.1,30.15,WNW,298,0.0,0.0,56,0.00,,---,0.00,VWS V14.01,2013-03-30 12:29:00,
2013-03-30 08:34:00,51.6,36.5,30.15,NW,310,0.0,0.0,56,0.00,,---,0.00,VWS V14.01,2013-03-30 12:34:00,
2013-03-30 08:39:00,51.8,36.2,30.15,WNW,300,6.0,6.0,55,0.00,,---,0.00,VWS V14.01,2013-03-30 12:39:00,
2013-03-30 08:44:00,52.0,36.3,30.15,WNW,296,5.4,5.4,55,0.00,,---,0.00,VWS V14.01,2013-03-30 12:44:00,
2013-03-30 08:49:00,52.0,36.3,30.15,West,261,0.0,0.0,55,0.00,,---,0.00,VWS V14.01,2013-03-30 12:49:00,
2013-03-30 08:54:00,52.2,36.0,30.15,NNW,338,0.0,4.9,54,0.00,,---,0.00,VWS V14.01,2013-03-30 12:54:00,
2013-03-30 08:59:00,52.5,36.4,30.15,WNW,300,5.4,7.6,54,0.00,,---,0.00,VWS V14.01,2013-03-30 12:59:00,
2013-03-30 09:04:00,52.7,36.1,30.15,NNW,329,0.0,0.0,53,0.00,,---,0.00,VWS V14.01,2013-03-30 13:04:00,
2013-03-30 09:09:00,52.9,36.2,30.18,NW,316,0.0,0.0,53,0.00,,---,0.00,VWS V14.01,2013-03-30 13:09:00,
2013-03-30 09:14:00,53.1,35.9,30.18,WNW,288,4.7,4.7,52,0.00,,---,0.00,VWS V14.01,2013-03-30 13:14:00,
2013-03-30 09:19:00,53.4,35.8,30.18,NW,307,5.4,5.4,51,0.00,,---,0.00,VWS V14.01,2013-03-30 13:19:00,
2013-03-30 09:24:00,54.0,35.8,30.18,NW,306,7.4,7.4,50,0.00,,---,0.00,VWS V14.01,2013-03-30 13:24:00,
2013-03-30 09:29:00,54.1,35.9,30.18,NW,314,0.0,3.6,50,0.00,,---,0.00,VWS V14.01,2013-03-30 13:29:00,
2013-03-30 09:34:00,54.1,35.4,30.18,WSW,246,6.0,6.0,49,0.00,,---,0.00,VWS V14.01,2013-03-30 13:34:00,
2013-03-30 09:39:00,54.1,35.4,30.18,WSW,249,0.0,0.0,49,0.00,,---,0.00,VWS V14.01,2013-03-30 13:39:00,
2013-03-30 09:44:00,54.3,35.6,30.18,NW,314,8.1,8.1,49,0.00,,---,0.00,VWS V14.01,2013-03-30 13:44:00,
2013-03-30 09:49:00,54.5,35.8,30.18,West,270,4.7,4.9,49,0.00,,---,0.00,VWS V14.01,2013-03-30 13:49:00,
2013-03-30 09:54:00,54.9,36.1,30.18,West,264,6.0,6.0,49,0.00,,---,0.00,VWS V14.01,2013-03-30 13:54:00,
2013-03-30 09:59:00,55.0,36.2,30.18,WNW,300,0.0,4.0,49,0.00,,---,0.00,VWS V14.01,2013-03-30 13:59:00,
2013-03-30 10:04:00,55.0,36.2,30.18,West,265,0.0,2.7,49,0.00,,---,0.00,VWS V14.01,2013-03-30 14:04:00,
2013-03-30 10:09:00,55.8,36.4,30.18,West,259,4.7,5.4,48,0.00,,---,0.00,VWS V14.01,2013-03-30 14:09:00,
2013-03-30 10:14:00,56.3,36.9,30.18,WSW,245,5.4,7.6,48,0.00,,---,0.00,VWS V14.01,2013-03-30 14:14:00,
2013-03-30 10:19:00,56.7,36.7,30.18,NW,310,10.1,10.1,47,0.00,,---,0.00,VWS V14.01,2013-03-30 14:19:00,
2013-03-30 10:24:00,56.8,36.8,30.18,SW,226,0.0,4.9,47,0.00,,---,0.00,VWS V14.01,2013-03-30 14:24:00,
2013-03-30 10:29:00,56.8,36.3,30.18,NW,317,0.0,2.2,46,0.00,,---,0.00,VWS V14.01,2013-03-30 14:29:00,
2013-03-30 10:34:00,57.6,37.0,30.18,WNW,301,8.1,8.1,46,0.00,,---,0.00,VWS V14.01,2013-03-30 14:34:00,
2013-03-30 10:39:00,58.1,37.5,30.18,North,353,0.0,0.0,46,0.00,,---,0.00,VWS V14.01,2013-03-30 14:39:00,
2013-03-30 10:44:00,58.1,36.9,30.18,NW,320,4.0,4.0,45,0.00,,---,0.00,VWS V14.01,2013-03-30 14:44:00,
2013-03-30 10:49:00,57.9,36.2,30.18,NW,308,3.4,3.4,44,0.00,,---,0.00,VWS V14.01,2013-03-30 14:49:00,
2013-03-30 10:54:00,58.1,36.3,30.18,NNW,328,0.0,4.0,44,0.00,,---,0.00,VWS V14.01,2013-03-30 14:54:00,
2013-03-30 10:59:00,58.1,36.3,30.18,WSW,241,0.0,0.0,44,0.00,,---,0.00,VWS V14.01,2013-03-30 14:59:00,
2013-03-30 11:04:00,58.5,36.1,30.18,WNW,296,4.0,4.0,43,0.00,,---,0.00,VWS V14.01,2013-03-30 15:04:00,
2013-03-30 11:09:00,58.5,35.5,30.18,SW,232,8.7,8.7,42,0.00,,---,0.00,VWS V14.01,2013-03-30 15:09:00,
2013-03-30 11:14:00,58.3,34.7,30.18,NW,326,0.0,5.8,41,0.00,,---,0.00,VWS V14.01,2013-03-30 15:14:00,
2013-03-30 11:19:00,58.5,34.9,30.18,SW,235,4.7,5.8,41,0.00,,---,0.00,VWS V14.01,2013-03-30 15:19:00,
2013-03-30 11:24:00,58.6,35.0,30.18,West,271,4.7,4.7,41,0.00,,---,0.00,VWS V14.01,2013-03-30 15:24:00,
2013-03-30 11:29:00,58.8,35.2,30.18,WNW,300,0.0,0.0,41,0.00,,---,0.00,VWS V14.01,2013-03-30 15:29:00,
2013-03-30 11:34:00,59.2,35.5,30.18,WNW,298,8.1,8.1,41,0.00,,---,0.00,VWS V14.01,2013-03-30 15:34:00,
2013-03-30 11:39:00,59.4,35.7,30.18,West,277,4.7,4.9,41,0.00,,---,0.00,VWS V14.01,2013-03-30 15:39:00,
2013-03-30 11:44:00,59.4,34.4,30.18,WNW,285,3.4,3.4,39,0.00,,---,0.00,VWS V14.01,2013-03-30 15:44:00,
2013-03-30 11:49:00,59.4,34.4,30.18,North,353,4.7,4.7,39,0.00,,---,0.00,VWS V14.01,2013-03-30 15:49:00,
2013-03-30 11:54:00,59.7,34.7,30.15,West,262,6.0,6.0,39,0.00,,---,0.00,VWS V14.01,2013-03-30 15:54:00,
2013-03-30 11:59:00,59.5,34.6,30.15,West,279,4.0,4.9,39,0.00,,---,0.00,VWS V14.01,2013-03-30 15:59:00,
2013-03-30 12:04:00,59.4,33.8,30.15,NW,320,0.0,0.0,38,0.00,,---,0.00,VWS V14.01,2013-03-30 16:04:00,
2013-03-30 12:09:00,59.2,33.6,30.15,West,279,5.4,5.4,38,0.00,,---,0.00,VWS V14.01,2013-03-30 16:09:00,
2013-03-30 12:14:00,59.4,34.4,30.15,NNW,327,4.7,4.7,39,0.00,,---,0.00,VWS V14.01,2013-03-30 16:14:00,
2013-03-30 12:19:00,59.4,34.4,30.15,WNW,296,0.0,3.1,39,0.00,,---,0.00,VWS V14.01,2013-03-30 16:19:00,
2013-03-30 12:24:00,59.4,34.4,30.15,WSW,254,0.0,0.0,39,0.00,,---,0.00,VWS V14.01,2013-03-30 16:24:00,
2013-03-30 12:29:00,59.4,34.4,30.15,WSW,256,0.0,0.0,39,0.00,,---,0.00,VWS V14.01,2013-03-30 16:29:00,
2013-03-30 12:34:00,59.5,34.6,30.15,WNW,292,0.0,2.2,39,0.00,,---,0.00,VWS V14.01,2013-03-30 16:34:00,
2013-03-30 12:39:00,59.9,34.2,30.15,WNW,288,0.0,0.0,38,0.00,,---,0.00,VWS V14.01,2013-03-30 16:39:00,
2013-03-30 12:44:00,59.9,34.2,30.15,WNW,302,0.0,4.9,38,0.00,,---,0.00,VWS V14.01,2013-03-30 16:44:00,
2013-03-30 12:49:00,59.9,33.6,30.15,West,259,0.0,0.0,37,0.00,,---,0.00,VWS V14.01,2013-03-30 16:49:00,
2013-03-30 12:54:00,59.7,34.1,30.15,NW,313,0.0,0.0,38,0.00,,---,0.00,VWS V14.01,2013-03-30 16:54:00,
2013-03-30 13:05:00,59.5,33.9,30.15,WSW,251,4.7,4.7,38,0.00,,---,0.00,VWS V14.01,2013-03-30 17:05:00,
2013-03-30 13:10:00,59.4,34.4,30.15,WNW,288,4.0,4.0,39,0.00,,---,0.00,VWS V14.01,2013-03-30 17:10:00,
2013-03-30 13:15:00,59.4,35.1,30.15,West,264,0.0,3.6,40,0.00,,---,0.00,VWS V14.01,2013-03-30 17:15:00,
2013-03-30 13:20:00,59.4,35.1,30.15,WSW,253,0.0,0.0,40,0.00,,---,0.00,VWS V14.01,2013-03-30 17:20:00,
2013-03-30 13:25:00,59.4,35.1,30.12,WNW,297,8.7,8.7,40,0.00,,---,0.00,VWS V14.01,2013-03-30 17:25:00,
2013-03-30 13:30:00,59.4,35.1,30.12,WSW,247,0.0,0.0,40,0.00,,---,0.00,VWS V14.01,2013-03-30 17:30:00,
2013-03-30 13:35:00,59.2,35.5,30.12,WSW,249,0.0,0.0,41,0.00,,---,0.00,VWS V14.01,2013-03-30 17:35:00,
2013-03-30 13:40:00,59.2,36.1,30.12,West,272,0.0,0.0,42,0.00,,---,0.00,VWS V14.01,2013-03-30 17:40:00,
2013-03-30 13:45:00,59.2,36.1,30.12,WNW,285,0.0,0.0,42,0.00,,---,0.00,VWS V14.01,2013-03-30 17:45:00,
2013-03-30 13:50:00,59.2,36.1,30.12,WNW,288,0.0,4.9,42,0.00,,---,0.00,VWS V14.01,2013-03-30 17:50:00,
2013-03-30 13:55:00,59.2,36.1,30.12,West,264,0.0,0.0,42,0.00,,---,0.00,VWS V14.01,2013-03-30 17:55:00,
2013-03-30 14:00:00,59.2,36.1,30.12,West,264,0.0,0.0,42,0.00,,---,0.00,VWS V14.01,2013-03-30 18:00:00,
2013-03-30 14:05:00,59.4,36.3,30.12,West,264,0.0,0.0,42,0.00,,---,0.00,VWS V14.01,2013-03-30 18:05:00,
2013-03-30 14:10:00,59.5,35.8,30.12,West,267,0.0,0.0,41,0.00,,---,0.00,VWS V14.01,2013-03-30 18:10:00,
2013-03-30 14:15:00,59.7,35.4,30.12,WNW,302,0.0,0.0,40,0.00,,---,0.00,VWS V14.01,2013-03-30 18:15:00,
2013-03-30 14:20:00,59.7,35.4,30.12,WNW,293,0.0,0.0,40,0.00,,---,0.00,VWS V14.01,2013-03-30 18:20:00,
2013-03-30 14:25:00,59.7,35.4,30.12,West,260,0.0,0.0,40,0.00,,---,0.00,VWS V14.01,2013-03-30 18:25:00,
2013-03-30 14:30:00,59.7,34.7,30.12,West,260,0.0,0.0,39,0.00,,---,0.00,VWS V14.01,2013-03-30 18:30:00,
2013-03-30 14:35:00,59.4,36.9,30.12,West,260,0.0,0.0,43,0.00,,---,0.00,VWS V14.01,2013-03-30 18:35:00,
2013-03-30 14:40:00,59.0,38.3,30.12,WSW,256,0.0,0.0,46,0.00,,---,0.00,VWS V14.01,2013-03-30 18:40:00,
2013-03-30 14:45:00,58.8,39.2,30.12,SW,236,0.0,0.0,48,0.00,,---,0.00,VWS V14.01,2013-03-30 18:45:00,
2013-03-30 14:50:00,59.0,39.4,30.12,SW,219,0.0,0.0,48,0.00,,---,0.00,VWS V14.01,2013-03-30 18:50:00,
2013-03-30 14:55:00,59.4,40.2,30.09,WSW,251,0.0,0.0,49,0.00,,---,0.00,VWS V14.01,2013-03-30 18:55:00,
2013-03-30 15:00:00,59.5,39.8,30.09,WSW,252,0.0,0.0,48,0.00,,---,0.00,VWS V14.01,2013-03-30 19:00:00,
2013-03-30 15:05:00,59.9,39.1,30.09,WSW,252,0.0,0.0,46,0.00,,---,0.00,VWS V14.01,2013-03-30 19:05:00,
2013-03-30 15:10:00,60.1,38.7,30.09,SSW,207,0.0,0.0,45,0.00,,---,0.00,VWS V14.01,2013-03-30 19:10:00,
2013-03-30 15:15:00,60.1,38.7,30.09,SSW,207,0.0,0.0,45,0.00,,---,0.00,VWS V14.01,2013-03-30 19:15:00,
2013-03-30 15:20:00,60.4,38.4,30.09,SSW,207,0.0,0.0,44,0.00,,---,0.00,VWS V14.01,2013-03-30 19:20:00,
2013-03-30 15:25:00,60.4,35.4,30.09,SSW,209,0.0,0.0,39,0.00,,---,0.00,VWS V14.01,2013-03-30 19:25:00,
2013-03-30 15:30:00,60.6,34.9,30.09,SSW,209,0.0,0.0,38,0.00,,---,0.00,VWS V14.01,2013-03-30 19:30:00,
2013-03-30 15:35:00,60.8,34.4,30.09,West,277,0.0,0.0,37,0.00,,---,0.00,VWS V14.01,2013-03-30 19:35:00,
2013-03-30 15:40:00,60.1,36.3,30.09,SSW,195,0.0,0.0,41,0.00,,---,0.00,VWS V14.01,2013-03-30 19:40:00,
2013-03-30 15:45:00,60.1,37.5,30.09,SSW,195,0.0,0.0,43,0.00,,---,0.00,VWS V14.01,2013-03-30 19:45:00,
2013-03-30 15:50:00,60.1,38.1,30.09,SSW,194,0.0,2.7,44,0.00,,---,0.00,VWS V14.01,2013-03-30 19:50:00,
2013-03-30 15:55:00,59.7,38.9,30.09,SSW,194,0.0,0.0,46,0.00,,---,0.00,VWS V14.01,2013-03-30 19:55:00,
2013-03-30 16:00:00,59.4,38.6,30.09,South,185,0.0,0.0,46,0.00,,---,0.00,VWS V14.01,2013-03-30 20:00:00,
2013-03-30 16:05:00,59.2,39.5,30.09,SSW,194,0.0,3.1,48,0.00,,---,0.00,VWS V14.01,2013-03-30 20:05:00,
2013-03-30 16:10:00,59.5,39.8,30.09,SSW,194,0.0,0.0,48,0.00,,---,0.00,VWS V14.01,2013-03-30 20:10:00,
2013-03-30 16:15:00,60.1,39.8,30.09,South,181,0.0,0.0,47,0.00,,---,0.00,VWS V14.01,2013-03-30 20:15:00,
2013-03-30 16:20:00,60.4,39.6,30.09,SE,144,0.0,0.0,46,0.00,,---,0.00,VWS V14.01,2013-03-30 20:20:00,
2013-03-30 16:25:00,60.4,40.7,30.09,SSW,195,0.0,0.0,48,0.00,,---,0.00,VWS V14.01,2013-03-30 20:25:00,
2013-03-30 16:30:00,60.1,40.3,30.09,SE,130,0.0,0.0,48,0.00,,---,0.00,VWS V14.01,2013-03-30 20:30:00,
2013-03-30 16:35:00,59.9,40.7,30.09,South,187,0.0,0.0,49,0.00,,---,0.00,VWS V14.01,2013-03-30 20:35:00,
2013-03-30 16:40:00,59.7,39.5,30.06,South,177,0.0,0.0,47,0.00,,---,0.00,VWS V14.01,2013-03-30 20:40:00,
2013-03-30 16:45:00,59.5,39.3,30.06,South,178,0.0,0.0,47,0.00,,---,0.00,VWS V14.01,2013-03-30 20:45:00,
2013-03-30 16:50:00,59.5,39.3,30.06,South,179,0.0,0.0,47,0.00,,---,0.00,VWS V14.01,2013-03-30 20:50:00,
2013-03-30 16:55:00,59.4,39.7,30.06,South,171,0.0,3.6,48,0.00,,---,0.00,VWS V14.01,2013-03-30 20:55:00,
2013-03-30 17:00:00,59.4,39.7,30.06,South,182,0.0,0.0,48,0.00,,---,0.00,VWS V14.01,2013-03-30 21:00:00,
2013-03-30 17:05:00,59.2,40.0,30.06,SSW,197,0.0,0.0,49,0.00,,---,0.00,VWS V14.01,2013-03-30 21:05:00,
2013-03-30 17:10:00,59.2,40.0,30.06,South,186,3.4,4.9,49,0.00,,---,0.00,VWS V14.01,2013-03-30 21:10:00,
2013-03-30 17:15:00,58.8,39.7,30.06,SSW,202,4.0,4.0,49,0.00,,---,0.00,VWS V14.01,2013-03-30 21:15:00,
2013-03-30 17:20:00,59.0,40.4,30.06,South,179,0.0,0.0,50,0.00,,---,0.00,VWS V14.01,2013-03-30 21:20:00,
2013-03-30 17:25:00,59.2,40.6,30.09,SW,236,4.0,4.9,50,0.00,,---,0.00,VWS V14.01,2013-03-30 21:25:00,
2013-03-30 17:30:00,58.8,41.2,30.09,SSW,192,4.7,4.7,52,0.00,,---,0.00,VWS V14.01,2013-03-30 21:30:00,
2013-03-30 17:35:00,58.6,41.6,30.09,South,189,0.0,0.0,53,0.00,,---,0.00,VWS V14.01,2013-03-30 21:35:00,
2013-03-30 17:40:00,58.5,41.4,30.09,South,189,0.0,0.0,53,0.00,,---,0.00,VWS V14.01,2013-03-30 21:40:00,
2013-03-30 17:45:00,58.5,41.9,30.09,South,169,0.0,0.0,54,0.00,,---,0.00,VWS V14.01,2013-03-30 21:45:00,
2013-03-30 17:50:00,58.3,42.2,30.09,South,188,0.0,0.0,55,0.00,,---,0.00,VWS V14.01,2013-03-30 21:50:00,
2013-03-30 17:55:00,58.3,42.2,30.09,SSW,196,0.0,0.0,55,0.00,,---,0.00,VWS V14.01,2013-03-30 21:55:00,
2013-03-30 18:00:00,58.3,42.7,30.09,South,186,0.0,0.0,56,0.00,,---,0.00,VWS V14.01,2013-03-30 22:00:00,
2013-03-30 18:05:00,58.1,43.0,30.09,SSE,167,0.0,0.0,57,0.00,,---,0.00,VWS V14.01,2013-03-30 22:05:00,
2013-03-30 18:10:00,58.1,43.0,30.09,South,183,0.0,0.0,57,0.00,,---,0.00,VWS V14.01,2013-03-30 22:10:00,
2013-03-30 18:15:00,57.9,42.8,30.09,SSW,210,0.0,0.0,57,0.00,,---,0.00,VWS V14.01,2013-03-30 22:15:00,
2013-03-30 18:20:00,57.9,42.3,30.09,South,191,8.1,8.1,56,0.00,,---,0.00,VWS V14.01,2013-03-30 22:20:00,
2013-03-30 18:25:00,57.9,41.9,30.09,South,189,0.0,0.0,55,0.00,,---,0.00,VWS V14.01,2013-03-30 22:25:00,
2013-03-30 18:30:00,57.9,41.9,30.09,South,189,0.0,0.0,55,0.00,,---,0.00,VWS V14.01,2013-03-30 22:30:00,
2013-03-30 18:35:00,57.7,42.2,30.09,SSE,151,0.0,0.0,56,0.00,,---,0.00,VWS V14.01,2013-03-30 22:35:00,
2013-03-30 18:40:00,57.4,42.3,30.09,SE,129,0.0,0.0,57,0.00,,---,0.00,VWS V14.01,2013-03-30 22:40:00,
2013-03-30 18:45:00,57.4,42.7,30.09,SE,130,0.0,0.0,58,0.00,,---,0.00,VWS V14.01,2013-03-30 22:45:00,
2013-03-30 18:50:00,57.4,42.7,30.09,SSE,147,0.0,0.0,58,0.00,,---,0.00,VWS V14.01,2013-03-30 22:50:00,
2013-03-30 18:55:00,57.4,42.7,30.09,SSW,204,0.0,0.0,58,0.00,,---,0.00,VWS V14.01,2013-03-30 22:55:00,
2013-03-30 19:00:00,57.2,42.6,30.09,South,171,0.0,0.0,58,0.00,,---,0.00,VWS V14.01,2013-03-30 23:00:00,
2013-03-30 19:05:00,57.2,42.6,30.09,South,181,0.0,0.0,58,0.00,,---,0.00,VWS V14.01,2013-03-30 23:05:00,
2013-03-30 19:10:00,57.0,42.8,30.09,South,182,0.0,0.0,59,0.00,,---,0.00,VWS V14.01,2013-03-30 23:10:00,
2013-03-30 19:15:00,56.8,42.7,30.09,South,180,0.0,0.0,59,0.00,,---,0.00,VWS V14.01,2013-03-30 23:15:00,
2013-03-30 19:20:00,56.8,43.1,30.09,South,180,0.0,0.0,60,0.00,,---,0.00,VWS V14.01,2013-03-30 23:20:00,
2013-03-30 19:25:00,56.7,43.0,30.09,South,180,0.0,0.0,60,0.00,,---,0.00,VWS V14.01,2013-03-30 23:25:00,
2013-03-30 19:30:00,56.7,43.0,30.09,South,180,0.0,0.0,60,0.00,,---,0.00,VWS V14.01,2013-03-30 23:30:00,
2013-03-30 19:35:00,56.5,43.2,30.09,South,181,0.0,0.0,61,0.00,,---,0.00,VWS V14.01,2013-03-30 23:35:00,
2013-03-30 19:40:00,56.3,43.0,30.09,South,181,0.0,0.0,61,0.00,,---,0.00,VWS V14.01,2013-03-30 23:40:00,
2013-03-30 19:45:00,56.3,43.0,30.09,South,181,0.0,0.0,61,0.00,,---,0.00,VWS V14.01,2013-03-30 23:45:00,
2013-03-30 19:50:00,56.3,43.0,30.09,South,173,0.0,0.0,61,0.00,,---,0.00,VWS V14.01,2013-03-30 23:50:00,
2013-03-30 19:55:00,56.1,43.3,30.09,South,173,0.0,0.0,62,0.00,,---,0.00,VWS V14.01,2013-03-30 23:55:00,
2013-03-30 20:00:00,56.1,43.3,30.09,South,191,0.0,0.0,62,0.00,,---,0.00,VWS V14.01,2013-03-31 00:00:00,
2013-03-30 20:05:00,56.1,43.7,30.09,South,190,4.0,4.0,63,0.00,,---,0.00,VWS V14.01,2013-03-31 00:05:00,
2013-03-30 20:10:00,55.9,43.5,30.09,South,183,0.0,0.0,63,0.00,,---,0.00,VWS V14.01,2013-03-31 00:10:00,
2013-03-30 20:15:00,55.9,44.0,30.09,SSW,213,0.0,0.0,64,0.00,,---,0.00,VWS V14.01,2013-03-31 00:15:00,
2013-03-30 20:20:00,55.9,44.0,30.09,South,178,0.0,0.0,64,0.00,,---,0.00,VWS V14.01,2013-03-31 00:20:00,
2013-03-30 20:25:00,55.9,43.5,30.09,SSE,166,3.4,3.4,63,0.00,,---,0.00,VWS V14.01,2013-03-31 00:25:00,
2013-03-30 20:30:00,55.9,43.5,30.09,SSE,149,0.0,0.0,63,0.00,,---,0.00,VWS V14.01,2013-03-31 00:30:00,
2013-03-30 20:35:00,55.8,43.0,30.09,SW,231,4.7,4.7,62,0.00,,---,0.00,VWS V14.01,2013-03-31 00:35:00,
2013-03-30 20:40:00,55.6,42.8,30.09,SE,127,0.0,3.6,62,0.00,,---,0.00,VWS V14.01,2013-03-31 00:40:00,
2013-03-30 20:45:00,55.4,42.2,30.09,SW,234,0.0,0.0,61,0.00,,---,0.00,VWS V14.01,2013-03-31 00:45:00,
2013-03-30 20:50:00,55.2,42.0,30.09,SSE,160,0.0,0.0,61,0.00,,---,0.00,VWS V14.01,2013-03-31 00:50:00,
2013-03-30 20:55:00,55.4,41.8,30.09,South,190,3.4,4.0,60,0.00,,---,0.00,VWS V14.01,2013-03-31 00:55:00,
2013-03-30 21:00:00,55.4,41.3,30.09,SSE,162,0.0,4.0,59,0.00,,---,0.00,VWS V14.01,2013-03-31 01:00:00,
2013-03-30 21:05:00,55.2,41.2,30.09,South,169,0.0,0.0,59,0.00,,---,0.00,VWS V14.01,2013-03-31 01:05:00,
2013-03-30 21:10:00,55.0,40.5,30.09,SSE,147,0.0,0.0,58,0.00,,---,0.00,VWS V14.01,2013-03-31 01:10:00,
2013-03-30 21:15:00,55.0,41.0,30.09,SSE,151,0.0,2.7,59,0.00,,---,0.00,VWS V14.01,2013-03-31 01:15:00,
2013-03-30 21:20:00,55.2,41.2,30.09,SE,143,0.0,0.0,59,0.00,,---,0.00,VWS V14.01,2013-03-31 01:20:00,
2013-03-30 21:25:00,55.0,40.5,30.09,SE,143,0.0,0.0,58,0.00,,---,0.00,VWS V14.01,2013-03-31 01:25:00,
2013-03-30 21:30:00,54.9,40.4,30.09,SE,143,0.0,0.0,58,0.00,,---,0.00,VWS V14.01,2013-03-31 01:30:00,
2013-03-30 21:35:00,54.9,40.4,30.09,SE,143,0.0,0.0,58,0.00,,---,0.00,VWS V14.01,2013-03-31 01:35:00,
2013-03-30 21:40:00,54.9,40.4,30.09,SE,143,0.0,0.0,58,0.00,,---,0.00,VWS V14.01,2013-03-31 01:40:00,
2013-03-30 21:45:00,54.7,40.2,30.09,SE,143,0.0,0.0,58,0.00,,---,0.00,VWS V14.01,2013-03-31 01:45:00,
2013-03-30 21:50:00,54.5,40.0,30.09,SE,143,0.0,0.0,58,0.00,,---,0.00,VWS V14.01,2013-03-31 01:50:00,
2013-03-30 21:55:00,54.3,40.3,30.09,SE,143,0.0,0.0,59,0.00,,---,0.00,VWS V14.01,2013-03-31 01:55:00,
2013-03-30 22:00:00,54.1,39.7,30.09,SE,127,0.0,0.0,58,0.00,,---,0.00,VWS V14.01,2013-03-31 02:00:00,
2013-03-30 22:05:00,54.3,39.4,30.09,SE,127,0.0,0.0,57,0.00,,---,0.00,VWS V14.01,2013-03-31 02:05:00,
2013-03-30 22:10:00,54.5,39.6,30.09,SE,132,0.0,0.0,57,0.00,,---,0.00,VWS V14.01,2013-03-31 02:10:00,
2013-03-30 22:15:00,54.3,39.0,30.09,SE,132,0.0,0.0,56,0.00,,---,0.00,VWS V14.01,2013-03-31 02:15:00,
2013-03-30 22:20:00,54.3,38.5,30.09,SE,132,0.0,0.0,55,0.00,,---,0.00,VWS V14.01,2013-03-31 02:20:00,
2013-03-30 22:25:00,54.0,38.2,30.09,SE,132,0.0,0.0,55,0.00,,---,0.00,VWS V14.01,2013-03-31 02:25:00,
2013-03-30 22:30:00,54.0,38.2,30.09,SE,132,0.0,0.0,55,0.00,,---,0.00,VWS V14.01,2013-03-31 02:30:00,
2013-03-30 22:35:00,53.8,38.0,30.09,SE,132,0.0,0.0,55,0.00,,---,0.00,VWS V14.01,2013-03-31 02:35:00,
2013-03-30 22:40:00,53.6,37.8,30.09,SE,132,0.0,0.0,55,0.00,,---,0.00,VWS V14.01,2013-03-31 02:40:00,
2013-03-30 22:45:00,53.6,37.8,30.09,SE,132,0.0,0.0,55,0.00,,---,0.00,VWS V14.01,2013-03-31 02:45:00,
2013-03-30 22:50:00,53.2,38.0,30.09,SE,132,0.0,0.0,56,0.00,,---,0.00,VWS V14.01,2013-03-31 02:50:00,
2013-03-30 22:55:00,53.2,38.0,30.09,SE,132,0.0,0.0,56,0.00,,---,0.00,VWS V14.01,2013-03-31 02:55:00,
2013-03-30 23:00:00,53.2,38.4,30.09,SE,132,0.0,0.0,57,0.00,,---,0.00,VWS V14.01,2013-03-31 03:00:00,
2013-03-30 23:05:00,53.2,38.4,30.09,SE,132,0.0,0.0,57,0.00,,---,0.00,VWS V14.01,2013-03-31 03:05:00,
2013-03-30 23:10:00,53.2,38.4,30.09,SE,132,0.0,0.0,57,0.00,,---,0.00,VWS V14.01,2013-03-31 03:10:00,
2013-03-30 23:15:00,53.1,38.2,30.09,SE,132,0.0,0.0,57,0.00,,---,0.00,VWS V14.01,2013-03-31 03:15:00,
2013-03-30 23:20:00,52.9,38.5,30.09,SE,132,0.0,0.0,58,0.00,,---,0.00,VWS V14.01,2013-03-31 03:20:00,
2013-03-30 23:25:00,52.9,39.0,30.09,SE,132,0.0,0.0,59,0.00,,---,0.00,VWS V14.01,2013-03-31 03:25:00,
2013-03-30 23:30:00,52.7,38.8,30.09,SE,132,0.0,0.0,59,0.00,,---,0.00,VWS V14.01,2013-03-31 03:30:00,
2013-03-30 23:35:00,52.7,39.2,30.09,SE,132,0.0,0.0,60,0.00,,---,0.00,VWS V14.01,2013-03-31 03:35:00,
2013-03-30 23:40:00,52.5,39.0,30.09,SE,132,0.0,0.0,60,0.00,,---,0.00,VWS V14.01,2013-03-31 03:40:00,
2013-03-30 23:45:00,52.3,39.3,30.09,SE,132,0.0,0.0,61,0.00,,---,0.00,VWS V14.01,2013-03-31 03:45:00,
2013-03-30 23:50:00,52.2,39.1,30.09,SE,132,0.0,0.0,61,0.00,,---,0.00,VWS V14.01,2013-03-31 03:50:00,
2013-03-30 23:55:00,52.2,39.1,30.09,SE,132,0.0,0.0,61,0.00,,---,0.00,VWS V14.01,2013-03-31 03:55:00,